User: anonymous   Login
Location: Bangkok
(13.7500°N, 100.5170°E)
Time: 18:51:35
(UTC+07:00)
Language:

Cosmos 1802 Rocket - Orbit

View from above orbital plane
View from above orbital plane
View from above satellite
View from above satellite

Ground track
Ground track

The orbit data is extracted from the following two-line orbital elements,

1 17160U 86093B   16273.11498667 -.00000017  00000-0 -34486-4 0  9991
2 17160  82.9245 257.9665 0039585 154.4121 258.9978 13.74581867497003
Epoch (UTC): 29 September 2016 02:45:34
Eccentricity: 0.0039585
inclination: 82.9245°
perigee height: 954 km
apogee height: 1012 km
right ascension of ascending node: 257.9665°
argument of perigee: 154.4121°
revolutions per day: 13.74581867
mean anomaly at epoch: 258.9978°
orbit number at epoch: 49700

The dashed part of the orbit path shows where the satellite is in the earth's shadow,  

DLR